[[{"header":{"parameterUnit":"m.s-1","parameterCategory":1,"la1":30.2991,"la2":30.254,"lo1":-89.0895,"lo2":-89.0444,"dy":0.0017,"dx":0.0017,"nx":28,"ny":28,"refTime":"2024-07-13T21:00:00:Z","depth":0,"parameterNumber":2,"parameterNumberName":"U-component_of_WINDS"},"data":[0,0,0,0,0,0,0,0,0,0,0,0,0,0,0,0,0,0,0,0,0,0,0,0,0,0,0,0,0,0,0,0,0,0,0,0,0,0,0,0,0,0,0,0,0,0,0,0,0,0,0,0,0,0,0,0,0,0,1.3481,1.3482,0,1.3584,1.3585,1.3586,1.3599,1.3598,1.3597,1.3596,1.3705,1.3709,1.3713,0,0,0,0,0,0,0,0,0,0,0,0,0,1.3301,1.3304,1.3481,1.3483,1.3484,1.3583,1.3585,1.3586,1.3599,1.3598,1.3596,1.3595,1.3704,1.3709,1.3713,0,0,0,0,0,0,0,0,0,0,0,0,0,1.3389,1.3305,1.3481,1.3502,1.3505,1.3583,1.3585,1.3587,1.3599,1.3598,1.3596,1.3595,1.3702,1.3708,1.3714,1.378,0,0,1.3731,1.3734,0,0,0,0,0,0,0,0,1.3384,1.3395,1.3498,1.3501,1.3504,1.3577,1.3561,1.3652,1.36,1.3564,1.3596,1.3594,1.3664,1.3673,1.3696,1.3785,1.3789,1.3732,1.3735,1.3738,1.374,0,0,0,0,0,0,0,1.3378,1.3391,1.3522,1.3499,1.3503,1.3508,1.3518,1.3579,1.3621,1.3567,1.3568,1.3579,1.3666,1.369,1.3698,1.3791,1.3732,1.3737,1.374,1.3743,1.3939,1.3941,0,0,0,0,0,0,1.3367,1.3386,1.3519,1.3525,1.3439,1.3512,1.3524,1.3555,1.362,1.3629,1.3581,1.358,1.3681,1.3691,1.3702,1.3783,1.3738,1.3743,1.3747,1.3937,1.394,1.3941,0,0,0,0,0,0,1.3363,1.3379,1.3515,1.3456,1.3473,1.3517,1.3551,1.3558,1.3582,1.3631,1.3639,1.3597,1.368,1.3694,1.376,1.3787,1.3746,1.3751,1.3935,1.3938,1.394,1.3945,0,0,0,0,0,0,1.3358,1.3377,1.3402,1.3456,1.3476,1.3569,1.3553,1.3561,1.3592,1.3591,1.3649,1.3657,1.368,1.3751,1.3766,1.3794,1.3756,1.3933,1.3937,1.394,1.3943,1.3947,1.3951,0,0,0,0,0,1.3351,1.34,1.3403,1.3419,1.3508,1.3571,1.3582,1.3606,1.3594,1.3619,1.3651,1.3655,1.3782,1.3758,1.3774,1.3805,1.3932,1.3936,1.3939,1.3941,1.3946,1.3951,0,0,0,0,0,0,1.3349,1.3408,1.3411,1.3479,1.3519,1.3573,1.3605,1.3612,1.3658,1.3656,1.3686,1.3699,1.3763,1.3791,1.3763,1.3872,1.3856,1.3863,1.3851,1.3857,1.3861,1.3853,1.376,0,0,0,0,0,1.3356,1.3401,1.3451,1.3505,1.3525,1.3562,1.359,1.3605,1.3649,1.3667,1.3703,1.3747,1.3796,1.3828,1.3877,1.3947,1.396,1.3976,1.3981,1.3984,1.399,1.4029,1.4036,1.3954,1.3954,1.3954,0,0,1.3372,1.341,1.3436,1.3506,1.3539,1.3586,1.3576,1.3627,1.3662,1.3675,1.3738,1.3767,1.3818,1.3885,1.3917,1.3911,1.4015,1.3989,1.3991,1.3996,1.4033,1.4041,1.4048,1.3957,1.3957,1.3956,0,0,1.3424,1.3457,1.3506,1.3539,1.3589,1.3613,1.3625,1.3677,1.3695,1.3759,1.377,1.3813,1.3898,1.3934,1.3963,1.4028,1.4034,1.4043,1.4066,1.4104,1.411,1.4116,1.4139,1.4146,1.4049,1.4049,1.4049,0,1.3437,1.3507,1.3531,1.358,1.361,1.3623,1.3673,1.3705,1.3768,1.379,1.3781,1.3887,1.3922,1.3998,1.4014,1.4037,1.4052,1.4036,1.4107,1.4113,1.4119,1.4141,1.4149,1.405,1.405,1.405,1.405,0,1.3521,1.3569,1.3603,1.3662,1.3696,1.3746,1.3778,1.381,1.3822,1.3847,1.3913,1.3955,1.4012,1.4031,1.4045,1.411,1.4104,1.4101,1.4085,1.4127,1.4148,1.4157,1.4051,1.4051,1.405,1.405,0,0,1.3574,1.3645,1.3657,1.3684,1.374,1.3778,1.3829,1.3883,1.3909,1.3953,1.3997,1.4068,1.4065,1.4098,1.4116,1.4148,1.4196,1.4142,1.4143,1.4149,1.427,1.4271,1.428,1.4201,1.4203,1.4204,1.4266,0,1.3631,1.372,1.3742,1.3818,1.3863,1.3876,1.392,1.396,1.3985,1.4028,1.4056,1.4105,1.4099,1.4119,1.4152,1.4183,1.4221,1.418,1.4242,1.4244,1.4227,1.4291,1.4293,1.4349,1.4274,1.4275,1.4276,0,1.371,1.3754,1.3833,1.3883,1.3903,1.3942,1.3993,1.4033,1.4079,1.4095,1.4132,1.4146,1.42,1.4181,1.4257,1.4228,1.4255,1.4275,1.4277,1.4283,1.4262,1.4298,1.4367,1.4375,1.429,1.4289,1.4288,0,1.3739,1.3818,1.3876,1.3899,1.3959,1.3986,1.4012,1.4056,1.4087,1.4132,1.4153,1.4204,1.4232,1.4273,1.43,1.4285,1.4373,1.4358,1.4388,1.4387,1.4406,1.4404,1.4479,1.4425,1.4425,1.4424,1.4424,0,1.3801,1.3849,1.389,1.3925,1.398,1.4006,1.406,1.4087,1.4126,1.4167,1.4183,1.4222,1.4257,1.4301,1.4323,1.4382,1.4395,1.441,1.4415,1.4408,1.4405,1.4425,1.4422,1.4427,1.4426,1.4426,1.4425,0,1.3842,1.3871,1.3935,1.3986,1.4,1.4038,1.4082,1.4117,1.4143,1.4195,1.4209,1.425,1.4302,1.4334,1.4402,1.4417,1.4481,1.4485,1.4465,1.4467,1.4495,1.4492,1.4585,1.4598,1.4536,1.4536,1.4537,0,1.3878,1.3915,1.397,1.3998,1.4024,1.407,1.4101,1.4129,1.4161,1.4216,1.4245,1.4298,1.4342,1.4425,1.4462,1.4513,1.4518,1.4547,1.4526,1.4517,1.4518,1.4514,1.4518,1.455,1.4551,1.4551,1.4552,0,1.394,1.3952,1.3996,1.4045,1.4081,1.4121,1.4161,1.4184,1.4219,1.4254,1.4307,1.4341,1.4409,1.4462,1.4516,1.4545,1.4554,1.4558,1.4568,1.456,1.4546,1.4553,1.4473,1.4556,1.4555,1.4555,1.4555,1.4555,1.3979,1.4012,1.4056,1.4104,1.4137,1.4174,1.4209,1.4239,1.4283,1.4339,1.4353,1.4409,1.4454,1.4528,1.4558,1.4602,1.4598,1.4612,1.4616,1.4618,1.4618,1.454,1.4613,1.4613,1.4613,1.4612,1.4612,0,1.404,1.4069,1.4113,1.4168,1.4206,1.421,1.4255,1.4286,1.4335,1.4375,1.4418,1.4479,1.453,1.457,1.4623,1.4651,1.4656,1.4664,1.4661,1.4668,1.462,1.4606,1.4658,1.4658,1.4658,1.4658,1.4658,1.4658,1.4077,1.4133,1.4151,1.4224,1.4252,1.4305,1.433,1.4365,1.4397,1.4464,1.4506,1.4531,1.4572,1.4628,1.4675,1.4686,1.4704,1.471,1.4722,1.4676,1.4671,1.4666,1.4653,1.4714,1.4715,1.4766,1.4766,1.4766]},{"header":{"parameterUnit":"m.s-1","parameterCategory":1,"la1":30.2991,"la2":30.254,"lo1":-89.0895,"lo2":-89.0444,"dy":0.0017,"dx":0.0017,"nx":28,"ny":28,"refTime":"2024-07-13T21:00:00:Z","depth":0,"parameterNumber":3,"parameterNumberName":"V-component_of_WINDS"},"data":[0,0,0,0,0,0,0,0,0,0,0,0,0,0,0,0,0,0,0,0,0,0,0,0,0,0,0,0,0,0,0,0,0,0,0,0,0,0,0,0,0,0,0,0,0,0,0,0,0,0,0,0,0,0,0,0,0,0,4.3539,4.3539,0,4.3507,4.3507,4.3506,4.3501,4.3502,4.3502,4.3502,4.3464,4.3463,4.3462,0,0,0,0,0,0,0,0,0,0,0,0,0,4.3592,4.3591,4.3539,4.3539,4.3538,4.3507,4.3507,4.3506,4.3501,4.3502,4.3502,4.3502,4.3465,4.3463,4.3462,0,0,0,0,0,0,0,0,0,0,0,0,0,4.3565,4.359,4.3539,4.3532,4.3531,4.3507,4.3507,4.3506,4.3501,4.3502,4.3502,4.3503,4.3465,4.3463,4.3461,4.3441,0,0,4.3455,4.3455,0,0,0,0,0,0,0,0,4.3567,4.3563,4.3534,4.3533,4.3531,4.3509,4.3511,4.3484,4.3501,4.3512,4.3502,4.3503,4.3478,4.3475,4.3468,4.3439,4.3437,4.3455,4.3454,4.3453,4.3453,0,0,0,0,0,0,0,4.3568,4.3564,4.3526,4.3533,4.3532,4.3529,4.3526,4.3506,4.3493,4.3511,4.3511,4.3508,4.3478,4.347,4.3467,4.3437,4.3455,4.3454,4.3452,4.3452,4.339,4.3389,0,0,0,0,0,0,4.3572,4.3566,4.3527,4.3525,4.3551,4.3528,4.3524,4.3516,4.3493,4.349,4.3507,4.3508,4.3473,4.347,4.3466,4.3441,4.3453,4.3451,4.345,4.339,4.339,4.3389,0,0,0,0,0,0,4.3573,4.3569,4.3529,4.3546,4.354,4.3527,4.3517,4.3515,4.3507,4.349,4.3487,4.3502,4.3473,4.3469,4.3448,4.344,4.3451,4.3449,4.3391,4.339,4.3389,4.339,0,0,0,0,0,0,4.3575,4.3569,4.3562,4.3546,4.3539,4.3512,4.3516,4.3514,4.3504,4.3504,4.3485,4.3482,4.3473,4.3451,4.3446,4.3437,4.3447,4.3392,4.3391,4.339,4.3391,4.339,4.3389,0,0,0,0,0,4.3577,4.3562,4.3562,4.3557,4.353,4.3511,4.3508,4.35,4.3504,4.3496,4.3485,4.3482,4.3442,4.3448,4.3443,4.3434,4.3392,4.3391,4.339,4.3392,4.339,4.3389,0,0,0,0,0,0,4.3575,4.356,4.3559,4.3539,4.3527,4.3511,4.35,4.3499,4.3484,4.3484,4.3474,4.3469,4.3449,4.3439,4.3447,4.3413,4.3417,4.3415,4.342,4.3419,4.3417,4.342,4.3446,0,0,0,0,0,4.3573,4.3561,4.3547,4.353,4.3525,4.3514,4.3505,4.3501,4.3487,4.3481,4.3469,4.3455,4.3439,4.3428,4.3412,4.339,4.3386,4.3381,4.338,4.3379,4.3377,4.3365,4.3363,4.3386,4.3386,4.3386,0,0,4.3567,4.3557,4.355,4.353,4.352,4.3506,4.3509,4.3494,4.3484,4.3478,4.3458,4.3449,4.3432,4.3411,4.3401,4.3402,4.337,4.3378,4.3377,4.3375,4.3364,4.3362,4.336,4.3385,4.3385,4.3385,0,0,4.355,4.3542,4.3528,4.3518,4.3504,4.3498,4.3494,4.3479,4.3473,4.3454,4.345,4.3437,4.3409,4.3398,4.3388,4.3369,4.3366,4.3364,4.3358,4.3347,4.3345,4.3343,4.3337,4.3335,4.3362,4.3362,4.3362,0,4.3545,4.3525,4.352,4.3506,4.3497,4.3495,4.348,4.347,4.3451,4.3445,4.3447,4.3414,4.3402,4.3379,4.3375,4.3367,4.3362,4.3366,4.3346,4.3344,4.3343,4.3336,4.3334,4.3362,4.3362,4.3362,4.3362,0,4.3519,4.3506,4.3496,4.348,4.347,4.3456,4.3447,4.3438,4.3435,4.3428,4.3408,4.3394,4.3377,4.3371,4.3366,4.3347,4.3348,4.3349,4.3352,4.3341,4.3335,4.3332,4.3362,4.3362,4.3362,4.3362,0,0,4.3498,4.3482,4.3478,4.3472,4.3457,4.3446,4.3431,4.3416,4.3408,4.3396,4.3383,4.3361,4.3362,4.3351,4.3346,4.3336,4.3323,4.3337,4.3337,4.3335,4.3301,4.3301,4.3298,4.3321,4.3321,4.332,4.3302,0,4.348,4.3456,4.3451,4.343,4.3417,4.3415,4.3403,4.3392,4.3385,4.3373,4.3365,4.335,4.3352,4.3346,4.3336,4.3326,4.3316,4.3328,4.3308,4.3307,4.3312,4.3295,4.3294,4.3278,4.33,4.33,4.3299,0,4.3454,4.3443,4.3421,4.341,4.3404,4.3393,4.338,4.3368,4.3356,4.3352,4.3342,4.3338,4.3322,4.3327,4.3305,4.3314,4.3306,4.33,4.3299,4.3296,4.3302,4.3291,4.3272,4.327,4.3295,4.3296,4.3296,0,4.3441,4.3421,4.3406,4.34,4.3386,4.3379,4.3372,4.3361,4.3352,4.334,4.3335,4.332,4.3312,4.33,4.3292,4.3297,4.3271,4.3275,4.3266,4.3267,4.326,4.3261,4.324,4.3256,4.3256,4.3256,4.3256,0,4.342,4.3407,4.34,4.3391,4.3376,4.3371,4.3356,4.3349,4.3339,4.3328,4.3325,4.3314,4.3304,4.3292,4.3286,4.3269,4.3265,4.326,4.3259,4.326,4.3261,4.3254,4.3255,4.3255,4.3255,4.3255,4.3255,0,4.3403,4.3398,4.3382,4.3371,4.3368,4.3357,4.3348,4.3338,4.3332,4.3318,4.3314,4.3304,4.329,4.3282,4.3262,4.3258,4.3239,4.3238,4.3244,4.3243,4.3235,4.3236,4.3208,4.3205,4.3224,4.3223,4.3223,0,4.339,4.338,4.3369,4.3363,4.3357,4.3345,4.3338,4.3333,4.3324,4.3311,4.3303,4.3289,4.3277,4.3254,4.3244,4.323,4.3228,4.322,4.3226,4.3229,4.3228,4.3229,4.3228,4.3218,4.3218,4.3218,4.3218,0,4.3367,4.3366,4.3356,4.3345,4.3337,4.3327,4.3318,4.3312,4.3306,4.3297,4.3283,4.3274,4.3257,4.3242,4.3228,4.322,4.3218,4.3217,4.3214,4.3215,4.3219,4.3217,4.3241,4.3217,4.3217,4.3217,4.3217,4.3217,4.3351,4.3343,4.3335,4.3324,4.3317,4.3309,4.33,4.3295,4.3284,4.327,4.3268,4.3253,4.3242,4.3223,4.3215,4.3203,4.3205,4.32,4.3199,4.3198,4.3198,4.3222,4.32,4.32,4.32,4.32,4.3201,0,4.3328,4.3324,4.3314,4.3303,4.3294,4.3296,4.3286,4.3278,4.3266,4.3257,4.3247,4.3232,4.3219,4.3209,4.3196,4.3188,4.3187,4.3185,4.3185,4.3183,4.3197,4.3201,4.3186,4.3186,4.3186,4.3186,4.3186,4.3186,4.3316,4.3302,4.33,4.3283,4.3278,4.3265,4.326,4.3252,4.3245,4.3229,4.3219,4.3214,4.3205,4.3191,4.3179,4.3177,4.3172,4.317,4.3167,4.318,4.3182,4.3183,4.3187,4.3169,4.3169,4.3154,4.3153,4.3153]}]]